This demonstration page uses our WeatherBlox Daily Observations layout. Learn more.

Left ArrowRight Arrow

Hourly Observations for June 13, 2017

Temp ( °F °C ) Dew Point ( °F °C ) Humidity (%) Winds ( mph kmh ) Pressure ( in mb ) Visibility ( mi km ) Precip ( " mm )
12:51 am 00:51 Clear 74 23.3 30 -1.1 20 20 N 13 20 29.72 1007 10 16 N/A
1:51 am 01:51 Clear 71 21.7 28 -2.2 20 20 NW 9 15 29.72 1007 10 16 N/A
2:51 am 02:51 Clear 68 20 29 -1.7 23 23 NW 7 11 29.74 1007 10 16 N/A
3:51 am 03:51 Clear 68 20 28 -2.2 22 22 W 3 6 29.75 1008 10 16 N/A
4:51 am 04:51 Clear 67 19.4 28 -2.2 23 23 N N/A 29.76 1008 10 16 N/A
5:51 am 05:51 Sunny 64 17.8 26 -3.3 24 24 WNW 6 9 29.79 1009 10 16 N/A
6:51 am 06:51 Sunny 70 21.1 27 -2.8 20 20 WNW 5 7 29.80 1009 10 16 N/A
7:51 am 07:51 Sunny 75 23.9 26 -3.3 16 16 W 5 7 29.81 1009 10 16 N/A
8:51 am 08:51 Sunny 80 26.7 23 -5 12 12 VRB 6 9 29.79 1009 10 16 N/A
9:51 am 09:51 Sunny 83 28.3 24 -4.4 11 11 W 12 19 29.78 1009 10 16 N/A
10:51 am 10:51 Sunny 87 30.6 20 -6.7 8 8 VRB 6 9 29.77 1008 10 16 N/A
11:51 am 11:51 Sunny 87 30.6 16 -8.9 7 7 N N/A 29.76 1008 10 16 N/A
12:51 pm 12:51 Sunny 89 31.7 16 -8.9 7 7 VRB 6 9 29.74 1007 10 16 N/A
1:51 pm 13:51 Sunny 92 33.3 15 -9.4 6 6 N N/A 29.72 1006 10 16 N/A
2:51 pm 14:51 Sunny 93 33.9 13 -10.6 5 5 NW 8 13 29.71 1006 10 16 N/A
3:51 pm 15:51 Sunny 95 35 11 -11.7 4 4 WNW 14 22 29.68 1005 10 16 N/A
4:51 pm 16:51 Sunny 96 35.6 9 -12.8 4 4 NW 14 22 29.67 1005 10 16 N/A
5:51 pm 17:51 Sunny 94 34.4 7 -13.9 4 4 WNW 17 28 29.67 1005 10 16 N/A
6:51 pm 18:51 Sunny 91 32.8 5 -15 4 4 NW 12 19 29.67 1005 10 16 N/A
7:51 pm 19:51 Clear 85 29.4 2 -16.7 4 4 NW 9 15 29.70 1006 10 16 N/A
8:51 pm 20:51 Clear 77 25 1 -17.2 5 5 WNW 9 15 29.71 1006 10 16 N/A
9:51 pm 21:51 Clear 75 23.9 1 -17.2 5 5 NW 12 19 29.72 1007 10 16 N/A
10:51 pm 22:51 Clear 73 22.8 1 -17.2 6 6 N N/A 29.73 1007 10 16 N/A
11:51 pm 23:51 Clear 68 20 2 -16.7 7 7 NW 8 13 29.74 1007 10 16 N/A

Powered by AerisWeather